Tracking 20621 objects as of 31-Mar-2020
HD Live streaming from Space Station
objects crossing your sky now

COSMOS 829

Track COSMOS 829 now!
10-day predictions
COSMOS 829 is classified as:


NORAD ID: 8893
Int'l Code: 1976-054E
Perigee: 1,456.8 km
Apogee: 1,497.8 km
Inclination: 74.0 °
Period: 115.3 minutes
Semi major axis: 7848 km
RCS: 0.7039 m2 (medium)
Launch date: June 15, 1976
Source: Commonwealth of Independent States (former USSR) (CIS)
Launch site: PLESETSK MISSILE AND SPACE COMPLEX (PKMTR)
aabbcc
Your satellite tracking list
Your tracking list is empty




NASA's NSSDC Master Catalog

Two Line Element Set (TLE):
1  8893U 76054E   20090.58157146 -.00000022 +00000-0 -39065-4 0  9991
2  8893 073.9977 118.2369 0026149 327.3859 150.8824 12.48640513996030
Source of the keplerian elements: AFSPC